User: anonymous
Location: Unspecified
(0.0000°N, 0.0000°E)
Time: 19:57:49
(UTC+02:00)
Language:

Palapa 6 Rocket - Orbit

View from above orbital plane
View from above orbital plane
View from above satellite
View from above satellite

Ground track
Ground track

The orbit data is extracted from the following two-line orbital elements,

1 20571U 90034B   14292.11296486  .00002203  00000-0  28923-3 0  5547
2 20571 022.7478 221.4274 0516896 273.2876 207.0562 14.09775536254560
Epoch (UTC): 19 October 2014 02:42:40
Eccentricity: 0.0516896
inclination: 22.7478°
perigee height: 486 km
apogee height: 1234 km
right ascension of ascending node: 221.4274°
argument of perigee: 273.2876°
revolutions per day: 14.09775536
mean anomaly at epoch: 207.0562°
orbit number at epoch: 25456

The dashed part of the orbit path shows where the satellite is in the earth's shadow,  

DLR